| time (UTC) | temp F | wind direction | speed MPH | gust MPH | rain 1hr in | rain 24hr in | rain mn in | humidity % | barometer mb |
| 20260502123004 | 54 | 204 | 0.0 | 0.0 | 0.00 | 0.00 | 0.71 | 92 | 1019.7 |
| 20260502122004 | 53 | 204 | 0.0 | 0.0 | 0.00 | 0.00 | 0.71 | 91 | 1019.7 |
| 20260502121004 | 53 | 204 | 0.0 | 0.0 | 0.00 | 0.00 | 0.71 | 91 | 1019.6 |
| 20260502115004 | 53 | 204 | 0.0 | 0.0 | 0.00 | 0.00 | 0.71 | 91 | 1019.5 |
| 20260502114004 | 53 | 204 | 0.0 | 0.0 | 0.00 | 0.00 | 0.71 | 91 | 1019.3 |
| 20260502113004 | 53 | 204 | 0.0 | 0.0 | 0.00 | 0.00 | 0.71 | 91 | 1019.1 |
| 20260502112004 | 53 | 204 | 0.0 | 1.0 | 0.00 | 0.00 | 0.71 | 91 | 1018.9 |
| 20260502111004 | 54 | 204 | 0.0 | 0.0 | 0.00 | 0.00 | 0.71 | 91 | 1018.8 |
| 20260502110004 | 54 | 204 | 0.0 | 0.0 | 0.00 | 0.00 | 0.71 | 91 | 1018.5 |
| 20260502105004 | 53 | 204 | 0.0 | 0.0 | 0.00 | 0.00 | 0.71 | 91 | 1018.4 |
| 20260502104004 | 53 | 204 | 0.0 | 0.0 | 0.00 | 0.00 | 0.71 | 91 | 1018.5 |
| 20260502101004 | 53 | 206 | 0.0 | 0.0 | 0.00 | 0.00 | 0.71 | 91 | 1018.3 |
| 20260502091004 | 53 | 206 | 0.0 | 0.0 | 0.00 | 0.00 | 0.71 | 91 | 1017.6 |
| 20260502071004 | 55 | 55 | 0.0 | 4.0 | 0.00 | 0.00 | 0.71 | 89 | 1017.2 |
| 20260502070004 | 55 | 49 | 0.0 | 0.0 | 0.00 | 0.00 | 0.71 | 89 | 1017.0 |
| 20260502065004 | 56 | 49 | 0.0 | 3.0 | 0.00 | 0.00 | 0.71 | 88 | 1017.1 |
| 20260502063004 | 56 | 64 | 0.0 | 4.0 | 0.00 | 0.00 | 0.71 | 89 | 1017.2 |
| 20260502062004 | 56 | 71 | 0.0 | 3.0 | 0.00 | 0.00 | 0.71 | 89 | 1017.2 |
| 20260502061004 | 56 | 71 | 0.0 | 5.0 | 0.00 | 0.00 | 0.71 | 89 | 1017.2 |
| 20260502054004 | 56 | 347 | 0.0 | 2.0 | 0.00 | 0.00 | 0.71 | 90 | 1017.0 |
| 20260502053004 | 56 | 357 | 0.0 | 2.0 | 0.00 | 0.00 | 0.71 | 90 | 1017.1 |
| 20260502052004 | 56 | 356 | 0.0 | 4.0 | 0.00 | 0.00 | 0.71 | 89 | 1017.1 |
| 20260502051003 | 56 | 20 | 0.0 | 6.0 | 0.00 | 0.00 | 0.71 | 89 | 1017.2 |
| 20260502050003 | 56 | 20 | 0.0 | 4.0 | 0.00 | 0.00 | 0.71 | 89 | 1017.0 |
| 20260502045004 | 56 | 17 | 0.0 | 8.0 | 0.00 | 0.00 | 0.71 | 89 | 1017.0 |
| 20260502044004 | 56 | 39 | 0.0 | 6.0 | 0.00 | 0.00 | 0.71 | 89 | 1017.0 |
| 20260502043004 | 56 | 47 | 0.0 | 5.0 | 0.00 | 0.00 | 0.71 | 90 | 1017.1 |
| 20260502042003 | 56 | 27 | 0.0 | 6.0 | 0.00 | 0.00 | 0.71 | 90 | 1017.1 |
| 20260502040003 | 57 | 83 | 0.0 | 7.0 | 0.00 | 0.00 | 0.71 | 91 | 1017.0 |
| 20260502035003 | 57 | 56 | 0.0 | 7.0 | 0.00 | 0.00 | 0.71 | 92 | 1016.8 |
| 20260502033003 | 56 | 54 | 2.0 | 4.0 | 0.00 | 0.00 | 0.71 | 91 | 1016.8 |
| 20260502032003 | 56 | 143 | 0.0 | 3.0 | 0.00 | 0.00 | 0.71 | 91 | 1016.7 |
| 20260502031003 | 56 | 29 | 0.0 | 7.0 | 0.00 | 0.00 | 0.71 | 91 | 1016.6 |
| 20260502030003 | 57 | 61 | 0.0 | 8.0 | 0.00 | 0.00 | 0.71 | 91 | 1016.3 |
| 20260502025003 | 57 | 119 | 0.0 | 8.0 | 0.00 | 0.00 | 0.71 | 91 | 1015.9 |
| 20260502023004 | 57 | 17 | 0.0 | 5.0 | 0.00 | 0.00 | 0.71 | 92 | 1015.2 |
| 20260502022003 | 57 | 17 | 0.0 | 6.0 | 0.00 | 0.00 | 0.71 | 92 | 1015.2 |
| 20260502021004 | 57 | 17 | 2.0 | 6.0 | 0.00 | 0.00 | 0.71 | 91 | 1015.2 |
| 20260502020004 | 57 | 14 | 0.0 | 4.0 | 0.00 | 0.00 | 0.71 | 92 | 1015.3 |
| 20260502015005 | 57 | 31 | 0.0 | 5.0 | 0.00 | 0.00 | 0.71 | 92 | 1015.2 |
| 20260502013005 | 57 | 88 | 0.0 | 2.0 | 0.00 | 0.00 | 0.71 | 92 | 1014.8 |
| 20260502012005 | 57 | 214 | 0.0 | 3.0 | 0.00 | 0.00 | 0.71 | 92 | 1014.8 |
| 20260502011004 | 57 | 225 | 0.0 | 9.0 | 0.00 | 0.00 | 0.71 | 92 | 1014.6 |
| 20260502005005 | 57 | 96 | 1.0 | 3.0 | 0.00 | 0.00 | 0.70 | 92 | 1014.2 |
| 20260502004004 | 57 | 57 | 0.0 | 3.0 | 0.00 | 0.00 | 0.70 | 92 | 1014.6 |
| 20260502003004 | 57 | 57 | 0.0 | 9.0 | 0.00 | 0.00 | 0.69 | 91 | 1014.8 |
| 20260502002004 | 58 | 48 | 0.0 | 3.0 | 0.00 | 0.00 | 0.68 | 92 | 1014.3 |
| 20260502000004 | 58 | 46 | 0.0 | 3.0 | 0.00 | 0.00 | 0.67 | 92 | 1013.8 |
| 20260501235004 | 58 | 46 | 0.0 | 1.0 | 0.00 | 0.00 | 0.65 | 91 | 1013.7 |
| 20260501233004 | 59 | 47 | 0.0 | 3.0 | 0.00 | 0.00 | 0.60 | 91 | 1013.5 |
| 20260501231004 | 59 | 44 | 0.0 | 7.0 | 0.00 | 0.00 | 0.58 | 91 | 1011.9 |
| 20260501230004 | 60 | 52 | 0.0 | 4.0 | 0.00 | 0.00 | 0.55 | 91 | 1012.4 |
| 20260501225004 | 60 | 49 | 0.0 | 3.0 | 0.00 | 0.00 | 0.53 | 91 | 1012.8 |
| 20260501224004 | 60 | 47 | 0.0 | 5.0 | 0.00 | 0.00 | 0.53 | 92 | 1011.2 |
| 20260501223004 | 60 | 28 | 1.0 | 7.0 | 0.00 | 0.00 | 0.53 | 92 | 1010.5 |
| 20260501222004 | 60 | 35 | 0.0 | 3.0 | 0.00 | 0.00 | 0.52 | 92 | 1011.2 |
| 20260501220004 | 60 | 38 | 0.0 | 8.0 | 0.00 | 0.00 | 0.50 | 92 | 1011.6 |
| 20260501213005 | 60 | 37 | 4.0 | 6.0 | 0.00 | 0.00 | 0.43 | 92 | 1011.9 |
| 20260501211004 | 61 | 164 | 0.0 | 6.0 | 0.00 | 0.00 | 0.41 | 91 | 1011.6 |
| 20260501210004 | 60 | 98 | 0.0 | 5.0 | 0.00 | 0.00 | 0.39 | 92 | 1011.0 |
| 20260501205004 | 61 | 43 | 0.0 | 10.0 | 0.00 | 0.00 | 0.38 | 92 | 1011.3 |
| 20260501204004 | 61 | 58 | 0.0 | 8.0 | 0.00 | 0.00 | 0.37 | 92 | 1010.9 |
| 20260501203004 | 61 | 64 | 0.0 | 2.0 | 0.00 | 0.00 | 0.37 | 92 | 1011.1 |
| 20260501202004 | 61 | 66 | 0.0 | 0.0 | 0.00 | 0.00 | 0.37 | 92 | 1011.7 |
| 20260501201004 | 61 | 66 | 0.0 | 5.0 | 0.00 | 0.00 | 0.35 | 92 | 1011.7 |
| 20260501200004 | 61 | 185 | 0.0 | 4.0 | 0.00 | 0.00 | 0.32 | 91 | 1012.1 |
| 20260501195004 | 62 | 34 | 0.0 | 3.0 | 0.00 | 0.00 | 0.28 | 91 | 1011.5 |
| 20260501194004 | 62 | 32 | 0.0 | 0.0 | 0.00 | 0.00 | 0.27 | 90 | 1011.8 |
| 20260501192003 | 62 | 32 | 0.0 | 3.0 | 0.00 | 0.00 | 0.27 | 91 | 1011.5 |
| 20260501191004 | 62 | 33 | 0.0 | 0.0 | 0.00 | 0.00 | 0.27 | 91 | 1010.6 |
| 20260501190004 | 62 | 33 | 0.0 | 7.0 | 0.00 | 0.00 | 0.27 | 92 | 1010.8 |
| 20260501185004 | 62 | 41 | 0.0 | 5.0 | 0.00 | 0.00 | 0.27 | 91 | 1010.5 |
| 20260501184003 | 62 | 175 | 0.0 | 5.0 | 0.00 | 0.00 | 0.27 | 91 | 1010.1 |
| 20260501183004 | 62 | 35 | 0.0 | 8.0 | 0.00 | 0.00 | 0.27 | 92 | 1009.5 |
| 20260501182004 | 62 | 24 | 0.0 | 6.0 | 0.00 | 0.00 | 0.27 | 92 | 1008.8 |
| 20260501181003 | 62 | 35 | 0.0 | 6.0 | 0.00 | 0.00 | 0.27 | 92 | 1008.7 |
| 20260501175003 | 62 | 235 | 0.0 | 4.0 | 0.00 | 0.00 | 0.27 | 92 | 1010.8 |
| 20260501174003 | 62 | 229 | 0.0 | 2.0 | 0.00 | 0.00 | 0.27 | 92 | 1011.8 |
| 20260501173004 | 62 | 230 | 0.0 | 4.0 | 0.00 | 0.00 | 0.26 | 92 | 1012.2 |
| 20260501172004 | 62 | 83 | 0.0 | 8.0 | 0.00 | 0.00 | 0.26 | 92 | 1011.9 |
| 20260501170004 | 62 | 22 | 0.0 | 5.0 | 0.00 | 0.00 | 0.26 | 91 | 1012.4 |
| 20260501165004 | 62 | 21 | 0.0 | 2.0 | 0.00 | 0.00 | 0.26 | 92 | 1012.5 |
| 20260501163003 | 62 | 20 | 0.0 | 3.0 | 0.00 | 0.00 | 0.26 | 93 | 1013.6 |
| 20260501162003 | 62 | 20 | 0.0 | 5.0 | 0.00 | 0.00 | 0.25 | 92 | 1014.4 |
| 20260501161004 | 62 | 21 | 0.0 | 0.0 | 0.00 | 0.00 | 0.24 | 92 | 1014.4 |
| 20260501160004 | 62 | 20 | 0.0 | 0.0 | 0.00 | 0.00 | 0.23 | 92 | 1014.5 |
| 20260501155003 | 62 | 20 | 0.0 | 4.0 | 0.00 | 0.00 | 0.22 | 92 | 1014.5 |
| 20260501154003 | 62 | 20 | 0.0 | 3.0 | 0.00 | 0.00 | 0.22 | 92 | 1014.0 |
| 20260501153003 | 62 | 19 | 0.0 | 2.0 | 0.00 | 0.00 | 0.22 | 92 | 1013.8 |
| 20260501152003 | 62 | 24 | 0.0 | 6.0 | 0.00 | 0.00 | 0.21 | 92 | 1013.3 |
| 20260501151003 | 62 | 23 | 0.0 | 4.0 | 0.00 | 0.00 | 0.21 | 92 | 1012.9 |
| 20260501150004 | 62 | 22 | 0.0 | 4.0 | 0.00 | 0.00 | 0.21 | 92 | 1012.8 |